Weather History for Roswell, NM

Change the Weather History Date:

Sunday, October 9, 2011

  Actual Average Record
Temperature  
Mean Temperature 59 °F 64 °F  
Max Temperature 71 °F 78 °F 93 °F (1965)
Min Temperature 47 °F 49 °F 30 °F (1970)
Degree Days  
Heating Degree Days 6 3  
Month to date heating degree days 12 22  
Since 1 July heating degree days 12 38  
Cooling Degree Days 0 2  
Month to date cooling degree days 39 22  
Year to date cooling degree days 2436 1773  
Growing Degree Days 9 (Base 50)    
Moisture  
Dew Point 40 °F    
Average Humidity 54    
Maximum Humidity 74    
Minimum Humidity 33    
Precipitation  
Precipitation 0.00 in 0.04 in 0.59 in (1986)
Month to date precipitation 0.20 0.38  
Year to date precipitation 3.24 10.84  
Sea Level Pressure  
Sea Level Pressure 29.97 in    
Wind  
Wind Speed 5 mph (NNW)    
Max Wind Speed 17 mph    
Max Gust Speed 21 mph    
Visibility 10 miles    
Events      
T = Trace of Precipitation, MM = Missing Value Source: NWS Daily Summary

Daily Weather History Graph

Daily Weather History Graph

Search for Another Location

Airport:

Trip Planner

Search our weather history database for the weather conditions in past years. The results will help you decide how hot, cold, wet, or windy it might be!

Date:

Astronomy

Oct. 09, 2011 Rise Set
Actual Time 6:57 AM MDT 6:32 PM MDT
Civil Twilight 6:33 AM MDT 6:57 PM MDT
Nautical Twilight 6:04 AM MDT 7:25 PM MDT
Astronomical Twilight 5:35 AM MDT 7:54 PM MDT
Moon 5:07 PM MDT (10/9) 4:49 AM MDT (10/9)
Length of Visible Light 12h 24m
Length of Day
11h 34m
Waxing Gibbous, 95% of the Moon is Illuminated
Oct 9
Waxing Gibbous
Oct 11
Full
Oct 19
Last Quarter
Oct 26
New
Nov 2
First Quarter

Hourly Weather History & Observations

Time (MDT) Temp. Dew Point Humidity Pressure Visibility Wind Dir Wind Speed Gust Speed Precip Events Conditions
12:51 AM 55.9 °F 30.9 °F 39% 29.91 in 10.0 mi NNW 9.2 mph - N/A   Clear
1:51 AM 55.9 °F 30.9 °F 39% 29.90 in 10.0 mi NNW 10.4 mph - N/A   Scattered Clouds
2:51 AM 52.0 °F 32.0 °F 47% 29.89 in 10.0 mi NW 8.1 mph - N/A   Mostly Cloudy
3:51 AM 50.0 °F 33.1 °F 52% 29.89 in 10.0 mi ENE 3.5 mph - N/A   Clear
4:51 AM 48.0 °F 34.0 °F 58% 29.92 in 10.0 mi North 3.5 mph - N/A   Scattered Clouds
5:51 AM 48.9 °F 37.0 °F 64% 29.94 in 10.0 mi NNW 10.4 mph - N/A   Partly Cloudy
6:51 AM 50.0 °F 43.0 °F 77% 29.97 in 10.0 mi NW 11.5 mph - N/A   Mostly Cloudy
7:51 AM 50.0 °F 42.1 °F 74% 30.02 in 10.0 mi North 12.7 mph - N/A   Scattered Clouds
8:51 AM 53.1 °F 45.0 °F 74% 30.04 in 10.0 mi North 13.8 mph - N/A   Mostly Cloudy
9:51 AM 57.0 °F 46.0 °F 67% 30.04 in 10.0 mi North 12.7 mph - N/A   Partly Cloudy
10:46 AM 59.0 °F 44.6 °F 59% 30.16 in 10.0 mi North 8.1 mph - N/A   Mostly Cloudy
10:51 AM 59.0 °F 45.0 °F 60% 30.05 in 10.0 mi NNW 8.1 mph - N/A   Mostly Cloudy
11:28 AM 60.8 °F 44.6 °F 55% 30.15 in 10.0 mi NW 11.5 mph - N/A   Overcast
11:51 AM 62.1 °F 44.1 °F 52% 30.03 in 10.0 mi North 9.2 mph - N/A   Mostly Cloudy
12:51 PM 64.0 °F 43.0 °F 46% 29.98 in 10.0 mi NW 6.9 mph - N/A   Scattered Clouds
1:51 PM 66.0 °F 43.0 °F 43% 29.94 in 10.0 mi Variable 4.6 mph - N/A   Clear
2:51 PM 66.9 °F 43.0 °F 42% 29.92 in 10.0 mi Calm Calm - N/A   Partly Cloudy
3:51 PM 66.9 °F 42.1 °F 40% 29.91 in 10.0 mi Calm Calm - N/A   Clear
4:51 PM 70.0 °F 39.9 °F 33% 29.91 in 10.0 mi Calm Calm - N/A   Clear
5:51 PM 66.9 °F 39.9 °F 37% 29.92 in 10.0 mi Calm Calm - N/A   Clear
6:51 PM 63.0 °F 39.0 °F 41% 29.94 in 10.0 mi Calm Calm - N/A   Clear
7:51 PM 63.0 °F 37.9 °F 40% 29.95 in 10.0 mi Calm Calm - N/A   Clear
8:51 PM 61.0 °F 37.9 °F 42% 29.97 in 10.0 mi Calm Calm - N/A   Clear
9:51 PM 57.0 °F 39.0 °F 51% 29.98 in 10.0 mi West 3.5 mph - N/A   Clear
10:51 PM 57.0 °F 39.0 °F 51% 29.99 in 10.0 mi Calm Calm - N/A   Clear
11:51 PM 52.0 °F 39.0 °F 61% 29.99 in 10.0 mi Calm Calm - N/A   Clear